User: anonymous   Login
Location: Cerroniocc
(13.7547°S, 72.0222°W)
Time: 10:53:06
(UTC+00:00)
Language:

GPS 2-14 Rocket1 - Orbit

View from above orbital plane
View from above orbital plane
View from above satellite
View from above satellite

Ground track
Ground track

The orbit data is extracted from the following two-line orbital elements,

1 22015U 92039B   20271.07218994  .00001852  00000-0  58455-4 0  9992
2 22015  20.7155  46.9931 0046981 255.6036 103.9185 15.19071696572960
Epoch (UTC): 27 September 2020 01:43:57
Eccentricity: 0.0046981
inclination: 20.7155°
perigee height: 476 km
apogee height: 541 km
right ascension of ascending node: 46.9931°
argument of perigee: 255.6036°
revolutions per day: 15.19071696
mean anomaly at epoch: 103.9185°
orbit number at epoch: 57296

The dashed part of the orbit path shows where the satellite is in the earth's shadow,  

DLR